Aérodrome :
LOGIN :

S'inscrire | Disclaimer

   EN    FR    IT 

 










Légende :    VFR   VFR Marginal   IFR   IFR Intensif   IFR Très Intensif
Visi : 
Plafond : 
>= 8 km
>= 3000ft
5 à 8 km
1000 à 3000 ft
1500m à 5 km
500 à 1000 ft
800 à 1500m
200 à 500 ft
< 800m
< 200 ft
Symboles :   Orages  Brouillard  Fortes neiges  Fortes précipitations  Vent > 20 kt
SIGMETs :   Divers  Orages  Givrage  Turbulence  Onde Orograph.  Cendres Volcan.







- Altitude de l'aérodrome : 137 ft


LIPS - Istrana AFB Treviso

DERNIER METAR :
  • 170055Z 00000KT 4500 BR NSC 10/09 Q1026 RMK SKC VIS MIN 4500 WIND THR26 00000KT WIND THR08 00000KT GRN

METARs EXPIRÉS :
  • 162355Z 00000KT 4500 BR NSC 11/10 Q1026
  • 162255Z 00000KT 3000 BR NSC 12/10 Q1026 RMK SKC VIS MIN 3000 WIND THR26 00000KT WIND THR08 00000KT YLO

TAF TAF LIPS
Valide du 17 à 00h jusqu'au 17 à 09h UTC


162300Z 1700/1709 VRB03KT 2000 BR NSC
TEMPO 1700/1706 1500 BCFG SCT003
Pas de NOTAMs connus pour ce terrain.



MET'MAP, la Météo Aéronautique d'un coup d'oeil ! - Copyright ORBIFLY Décembre 2007 - Disclaimer

ORBIFLY MET'MAP TEAM :

Programmation & Développement : Alexandra Zaïnal
Conception & Développement : Baudouin d'Aumeries
Co-Programmation & Développement : Marc-Olivier Méhu
Soutien technique & logistique : Manuel Goepfert

Contact : metmap@orbifly.com




SOURCES & CREDITS :

   NOAA